STARLINK-3802, 52286

Orbit data source: Space-Track

STARLINK-3802, 52286 is a payload satellite owned by SpaceX/Seattle (US) in LEO that was launched on Thu, 21 Apr 2022 UTC via an FALCON 9 launch vehicle from the Air Force Eastern Test Range (AFETR). Payload-class satellites include a variety of spacecraft equipped with specific instruments for various scientific and technological missions. These include communications satellites like Starlink; space stations such as the ISS; scientific satellites like the Hubble; Earth observation satellites from companies like Planet Labs, Umbra, and HawkEye 360; GPS; miniature CubeSats for education and research; and military/defense satellites.

Loading next visibility...
Identifier
52286, 2022-041AB
Orbit
LEO
Country
Flag of USUS
Related business
Manufacturer
SpaceX/Seattle
Mission
Operational Commercial Communications
Bus & Motor
STARLINK, Unknown motor
Mass
297 kg wet, ~275 kg dry
Launch date (UTC)
2022-04-21 (4 years ago)
Launch vehicle
FALCON 9
Launch site
Air Force Eastern Test Range (AFETR)
Object type
Payload
Rocket body
Debris
Shape & HBR
Box + 1 Pan, 10.1 m
Radar Cross Section
11.087 m², Large (>1 m²)

Expand to show TLE details & history
Last TLE update: 20 hours ago

TLE from 20 hours ago
0 STARLINK-3802
1 52286U 22041AB  26175.14960850 -.00001249  00000-0 -60413-4 0  9992
2 52286  53.1614 341.0638 0001181  86.6960 273.4167 15.08825142230579
Epoch: 2026-06-24T03:35Z
TLE epoch observation values (Epoch: 2026-06-24T03:35:26.174Z)
Latitude
0.00002°
Longitude
14.89379°
Altitude
540.632 km
Speed
7.593 km/s
True Right ascension
22h 44m 15s
True Declination
0° 00' 00"
Sunlit
Object was in daylight at epoch
Visualization orbit readout
Latitude
Unknown
Longitude
Unknown
Altitude
Unknown
Speed
Unknown
Apparent Right ascension
Unknown
Apparent Declination
Unknown
Sunlit
N/A
Visualization observer readout
Local Sidereal Time
10:33:35
Azimuth
Unknown
Elevation
Unknown
Doppler factor
Unknown
Orbital elements
Apogee altitude
540.86 km
Perigee altitude
539.226 km
Semi-major axis
6,918.18 km
Eccentricity
0.00012
Inclination
53.1614°
RAAN
341.0638°
Arg. of periapsis
86.696°
True anomaly
273.40319°
Mean anomaly
273.4167°
Eccentric anomaly
273.40995°
Mean motion
3.77186 °/min
Orbital period
95.44 mins
BSTAR
-0.000060413
Loading maneuver chart data...
Computing Atmospheric mass density...
Loading historical data...
Loading historical data...
Loading historical data...
Loading historical data...
Loading historical data...
Loading historical data...
Loading historical data...

Documentation

Showing up to 5 results
|